TimePST,TemperatureF,Dew PointF,Humidity,Sea Level PressureIn,VisibilityMPH,Wind Direction,Wind SpeedMPH,Gust SpeedMPH,PrecipitationIn,Events,Conditions,WindDirDegrees,DateUTC
12:56 AM,30.0,10.9,45,29.70,10.0,NE,10.4,-,N/A,,Clear,50,2013-02-19 08:56:00
1:56 AM,28.0,10.9,49,29.68,10.0,NNW,10.4,-,N/A,,Clear,330,2013-02-19 09:56:00
2:56 AM,27.0,10.9,51,29.67,10.0,NW,8.1,-,N/A,,Clear,310,2013-02-19 10:56:00
3:56 AM,24.1,10.0,55,29.65,10.0,Calm,Calm,-,N/A,,Clear,0,2013-02-19 11:56:00
4:56 AM,28.4,8.6,43,29.71,10.0,NNW,5.8,-,N/A,,Partly Cloudy,340,2013-02-19 12:56:00
5:56 AM,25.0,8.1,49,29.67,10.0,ENE,8.1,-,N/A,,Partly Cloudy,60,2013-02-19 13:56:00
6:56 AM,26.1,9.0,49,29.66,10.0,West,8.1,-,N/A,,Clear,270,2013-02-19 14:56:00
7:56 AM,35.1,10.0,35,29.65,10.0,Calm,Calm,-,N/A,,Clear,0,2013-02-19 15:56:00
8:56 AM,43.0,8.1,24,29.62,10.0,NNE,4.6,-,N/A,,Clear,30,2013-02-19 16:56:00
9:56 AM,45.0,6.1,20,29.60,10.0,Calm,Calm,-,N/A,,Clear,0,2013-02-19 17:56:00
10:56 AM,46.0,8.1,21,29.57,10.0,South,5.8,-,N/A,,Clear,170,2013-02-19 18:56:00
11:56 AM,52.0,12.9,21,29.53,10.0,SSE,17.3,28.8,N/A,,Clear,160,2013-02-19 19:56:00
12:56 PM,55.9,5.0,13,29.46,10.0,SE,15.0,29.9,N/A,,Clear,140,2013-02-19 20:56:00
1:32 PM,51.8,1.4,13,29.50,10.0,SSW,20.7,28.8,N/A,,Clear,210,2013-02-19 21:32:00
1:56 PM,51.1,1.9,13,29.47,10.0,WSW,19.6,33.4,N/A,,Clear,250,2013-02-19 21:56:00
2:56 PM,48.9,5.0,17,29.48,10.0,West,18.4,27.6,N/A,,Clear,260,2013-02-19 22:56:00
4:56 PM,46.9,1.0,15,29.45,10.0,NW,8.1,-,N/A,,Clear,310,2013-02-20 00:56:00
5:56 PM,45.0,1.9,17,29.46,10.0,West,18.4,23.0,N/A,,Overcast,260,2013-02-20 01:56:00
6:56 PM,44.1,1.0,17,29.45,10.0,West,13.8,24.2,N/A,,Partly Cloudy,280,2013-02-20 02:56:00
7:56 PM,36.0,7.0,30,29.44,10.0,NNW,11.5,-,N/A,,Clear,330,2013-02-20 03:56:00
8:56 PM,30.0,6.1,36,29.45,10.0,NE,4.6,-,N/A,,Clear,40,2013-02-20 04:56:00
9:56 PM,32.0,7.0,35,29.46,10.0,NW,6.9,-,N/A,,Clear,320,2013-02-20 05:56:00
10:56 PM,35.1,10.0,35,29.47,10.0,NW,6.9,-,N/A,,Scattered Clouds,320,2013-02-20 06:56:00
11:56 PM,35.1,19.9,54,29.47,10.0,North,11.5,-,N/A,,Clear,360,2013-02-20 07:56:00